Dundee, United Kingdom

11:55 PM GMT on November 21, 2017 (GMT +0000)
Dundee

Weather History for EGPN - November, 2012

Change the Weather History Date:

Monday, November 12, 2012

  Actual Average Record
Temperature  
Mean Temperature 38 °F -  
Max Temperature 44 °F 45 °F 55 °F (2004)
Min Temperature 33 °F 38 °F 32 °F (2007)
Degree Days  
Heating Degree Days 26    
Moisture  
Dew Point 39 °F    
Average Humidity 93    
Maximum Humidity 100    
Minimum Humidity 87    
Precipitation  
Precipitation 0.00 in - - ()
Sea Level Pressure  
Sea Level Pressure 29.86 in    
Wind  
Wind Speed 3 mph ()    
Max Wind Speed 7 mph    
Max Gust Speed -    
Visibility 4.6 miles    
Events Rain    
Averages and records for this station are not official NWS values.
T = Trace of Precipitation, MM = Missing Value Source: Averaged Metar Reports

Daily Weather History Graph

Daily Weather History Graph

Search for Another Location

Airport or City:

Trip Planner

Search our weather history database for the weather conditions in past years. The results will help you decide how hot, cold, wet, or windy it might be!

Date:

Astronomy

Nov. 12, 2012 Rise Set
Actual Time 7:45 AM GMT 4:06 PM GMT
Civil Twilight 7:02 AM GMT 4:49 PM GMT
Nautical Twilight 6:16 AM GMT 5:34 PM GMT
Astronomical Twilight 5:32 AM GMT 6:19 PM GMT
Moon 5:39 AM GMT (11/12) 3:10 PM GMT (11/12)
Length of Visible Light 9h 46m
Length of Day
8h 21m
Waning Crescent, 3% of the Moon is Illuminated
Nov 12
Waning Crescent
Nov 13
New
Nov 20
First Quarter
Nov 28
Full
Dec 6
Last Quarter

Hourly Weather History & Observations

Time (GMT) Temp. Windchill Dew Point Humidity Pressure Visibility Wind Dir Wind Speed Gust Speed Precip Events Conditions
6:20 AM 33.8 °F - 32.0 °F 93% 29.92 in 6.2 mi ENE 2.3 mph - N/A   Scattered Clouds
6:50 AM 33.8 °F - 32.0 °F 93% 29.92 in 6.2 mi SSE 1.2 mph - N/A   Partly Cloudy
7:20 AM 33.8 °F - 32.0 °F 93% 29.92 in 6.2 mi NW 1.2 mph - N/A   Partly Cloudy
7:50 AM 35.6 °F - 33.8 °F 93% 29.92 in 6.2 mi East 2.3 mph - N/A   Partly Cloudy
8:20 AM 37.4 °F 33.8 °F 33.8 °F 87% 29.92 in 6.2 mi ENE 4.6 mph - N/A   Partly Cloudy
8:50 AM 37.4 °F 33.8 °F 35.6 °F 93% 29.92 in 6.2 mi East 4.6 mph - N/A   Scattered Clouds
9:20 AM 39.2 °F 35.9 °F 35.6 °F 87% 29.89 in 6.2 mi East 4.6 mph - N/A   Scattered Clouds
9:50 AM 41.0 °F 37.1 °F 37.4 °F 87% 29.89 in 6.2 mi East 5.8 mph - N/A   Scattered Clouds
10:20 AM 41.0 °F 37.1 °F 37.4 °F 87% 29.89 in 6.2 mi ENE 5.8 mph - N/A   Scattered Clouds
10:50 AM 42.8 °F 38.6 °F 39.2 °F 87% 29.89 in 6.2 mi East 6.9 mph - N/A Rain Light Rain
11:20 AM 42.8 °F 39.3 °F 39.2 °F 87% 29.86 in 6.2 mi ENE 5.8 mph - N/A Rain Light Rain
11:50 AM 42.8 °F 39.3 °F 41.0 °F 93% 29.86 in 6.2 mi ENE 5.8 mph - N/A Rain Light Rain
12:20 PM 42.8 °F 38.6 °F 41.0 °F 93% 29.83 in 6.2 mi East 6.9 mph - N/A Rain Light Rain
12:50 PM 42.8 °F 40.1 °F 41.0 °F 93% 29.86 in 5.6 mi East 4.6 mph - N/A Rain Light Rain
1:20 PM 44.6 °F 43.1 °F 42.8 °F 93% 29.83 in 5.6 mi East 3.5 mph - N/A Rain Light Rain
2:20 PM 44.6 °F 43.1 °F 42.8 °F 93% 29.83 in 5.6 mi ENE 3.5 mph - N/A   Mostly Cloudy
2:50 PM 44.6 °F - 42.8 °F 93% 29.83 in 5.6 mi ENE 2.3 mph - N/A   Mostly Cloudy
3:20 PM 44.6 °F - 42.8 °F 93% 29.83 in 5.6 mi East 2.3 mph - N/A   Mostly Cloudy
3:50 PM 44.6 °F - 42.8 °F 93% 29.83 in 4.3 mi NE 1.2 mph - N/A   Mostly Cloudy
4:20 PM 44.6 °F - 42.8 °F 93% 29.83 in 4.3 mi North 1.2 mph - N/A Rain Light Rain
4:50 PM 44.6 °F - 42.8 °F 93% 29.83 in 4.3 mi Calm Calm - N/A Rain Light Rain
5:20 PM 42.8 °F - 41.0 °F 93% 29.83 in 3.7 mi West 2.3 mph - N/A   Overcast
5:50 PM 41.0 °F 39.0 °F 39.2 °F 93% 29.83 in 3.1 mi West 3.5 mph - N/A Rain Light Rain
6:20 PM 41.0 °F 39.0 °F 39.2 °F 93% 29.83 in 2.5 mi West 3.5 mph - N/A Rain Light Rain
6:50 PM 41.0 °F 39.0 °F 41.0 °F 100% 29.86 in 0.9 mi WSW 3.5 mph - N/A Rain Light Rain
7:20 PM 41.0 °F - 39.2 °F 93% 29.86 in 1.1 mi West 2.3 mph - N/A   Overcast
7:50 PM 41.0 °F 38.0 °F 39.2 °F 93% 29.86 in 0.9 mi West 4.6 mph - N/A   Overcast
8:20 PM 41.0 °F 39.0 °F 41.0 °F 100% 29.86 in 0.7 mi WSW 3.5 mph - N/A   Overcast
8:50 PM 41.0 °F - 39.2 °F 93% 29.86 in 2.5 mi WNW 2.3 mph - N/A   Overcast
9:20 PM 41.0 °F 39.0 °F 41.0 °F 100% 29.86 in 2.5 mi WSW 3.5 mph - N/A   Overcast
9:50 PM 41.0 °F - 41.0 °F 100% 29.86 in 2.5 mi Calm Calm - N/A   Overcast